Location: Newark
(12.4436°N, 0.6167°W)
Time: 12:50:09
(UTC+00:00)

Vanguard 1 - Pass Details

Date: 10 December 2019
Orbit: 651 x 3833 km, 34.2° (Epoch: 24 January)

Event Time Altitude Azimuth Distance (km) Brightness Sun altitude
Rises 10:16:21 0° 306° (NW) 6,771 14.0 47.2°
Reaches altitude 10° 10:21:48 10° 311° (NW) 5,242 13.5 47.9°
Maximum altitude 10:34:49 51° 23° (NNE) 1,914 11.9 49.6°
Drops below altitude 10° 10:41:53 10° 98° (E) 2,937 13.0 50.4°
Sets 10:44:05 0° 104° (ESE) 3,649 13.4 50.6°
